Location: Newark
(0.5300°S, 127.4800°E)
Time: 20:46:19
(UTC+00:00)

A-11 Canister half - Pass Details

Date: 23 September 2019
Orbit: 1514 x 1686 km, 47.2° (Epoch: 16 October)

Event Time Altitude Azimuth Distance (km) Brightness Sun altitude
Rises 19:18:17 0° 191° (SSW) 4,913 11.6 -31.0°
Reaches altitude 10° 19:23:09 10° 172° (S) 3,899 11.2 -29.8°
Maximum altitude 19:29:01 17° 135° (SE) 3,330 11.2 -28.4°
Drops below altitude 10° 19:34:45 10° 98° (E) 3,817 12.1 -26.9°
Sets 19:39:21 0° 79° (E) 4,765 12.9 -25.8°
